Погода в Боевом

Россия / Омская область     54°56′04″N   71°26′58″E
темп.,
°C
ветер,
м/с
пор.,
м/с
влажн.,
%
обл.,
%
осадки,
мм/ч
давл.,
гПа
погр.,
м
22 января, пт
пт2200:00−23з499788 0.1 1013294
03:00−25зюз479988 0.0 1014129
06:00−27з499764 0.0 1015158
09:00−28з47980 0.0 1015108
12:00−25зюз479613 0.0 1016230
15:00−23зюз379687 0.0 1018261
18:00−23зюз379892 0.1 1019211
21:00−22зюз3498100 0.1 1020134
23 января, сб
сб2300:00−23зюз2398100 0.1 102240
03:00−25сз129989 0.1 102320
06:00−27ссз239886 0.1 102522
09:00−30ссз3398100 0.0 102840
12:00−30ссз359696 0.1 1030165
15:00−29сз359428 0.0 1032244
18:00−33сз359549 0.0 103580
21:00−36сз349546 0.0 103742
24 января, вс
вс2400:00−37сз339633 0.0 103831
03:00−36сз239597 0.0 103961
06:00−35зсз229599 0.0 103948
09:00−34зсз1194100 0.0 104019
12:00−32зюз1190100 0.0 1041160
15:00−31ююз119255 0.0 1041130
18:00−35юв119627 0.0 104219
21:00−36юв22930 0.0 104319
25 января, пн
пн2500:00−36вюв23940 0.0 104419
03:00−34вюв349494 0.0 104482
06:00−32вюв469497 0.0 1043169
09:00−32вюв4794100 0.0 1043166
12:00−29вюв5893100 0.0 1042252
15:00−27вюв4896100 0.0 1041252
18:00−29вюв499699 0.1 1040208
21:00−30вюв5997100 0.0 1041216
26 января, вт
вт2600:00−30вюв4997100 0.1 1040199
03:00−31вюв4798100 0.0 1040163
06:00−31вюв4798100 0.1 1040162
09:00−29вюв4797100 0.0 1041226
12:00−27вюв4797100 0.1 1041240
15:00−25вюв4697100 0.1 1041251
18:00−25юв4797100 0.2 1041239
21:00−27юв479794 0.0 1041190